User: anonymous   Login
Location: Unspecified
(63.2336°N, 0.0000°E)
Time: 19:10:30
(UTC+00:00)
Language:

GMS 1 Rocket - Orbit

View from above orbital plane
View from above orbital plane
View from above satellite
View from above satellite

Ground track
Ground track

The orbit is defined by the following mean orbital elements,

1 10184U          26087.97593825 +.00000000 +00000-0 +15359-3 0 00004
2 10184  29.0816 324.8210 0756180 297.5249  55.0458 13.49312003    00
Epoch (UTC): 28 March 2026 23:25:21
Eccentricity: 0.0756180
inclination: 29.0816°
perigee height: 511 km
apogee height: 1638 km
right ascension of ascending node: 324.8210°
argument of perigee: 297.5249°
revolutions per day: 13.49312003
mean anomaly at epoch: 55.0458°

The dashed part of the orbit path shows where the satellite is in the earth's shadow,  

DLR